1487732400.43,31756,10.69,72500.8,-12.69,-13.73,-13.83,0,*65
1487732401.7,31757,10.69,72506.8,-12.69,-13.83,-13.83,0,*6B
1487732402.93,31758,10.69,72512.5,-12.73,-13.79,-13.93,0,*6B
1487732404.16,31759,10.69,72504.3,-12.69,-13.73,-13.87,0,*6E
1487732405.4,31760,10.69,72500.0,-12.69,-13.73,-13.87,0,*64
1487732406.64,31761,10.69,72498.8,-12.69,-13.73,-13.83,0,*61
1487732407.9,31762,10.63,72502.3,-12.69,-13.83,-13.83,0,*6D
1487732409.16,31763,10.63,72498.5,-12.73,-13.79,-13.87,0,*66
1487732410.41,31764,10.69,72496.0,-12.69,-13.73,-13.97,0,*61
1487732411.64,31765,10.69,72494.3,-12.69,-13.73,-13.87,0,*61
1487732412.88,31766,10.69,72492.3,-12.69,-13.73,-13.87,0,*62
1487732414.12,31767,10.69,72488.0,-12.69,-13.73,-13.83,0,*67
1487732415.35,31768,10.69,72494.8,-12.69,-13.87,-13.93,0,*62
1487732416.61,31769,10.63,72492.0,-12.73,-13.87,-14.05,0,*60
1487732417.87,31770,10.69,72488.5,-12.73,-13.87,-14.05,0,*68
1487732419.14,31771,10.69,72492.8,-12.69,-13.87,-14.01,0,*66
1487732420.41,31772,10.63,72492.3,-12.73,-13.83,-13.97,0,*62
1487732421.65,31773,10.69,72494.5,-12.73,-13.93,-14.01,0,*6A
1487732422.88,31774,10.69,72492.5,-12.73,-13.87,-13.93,0,*64
1487732424.15,31775,10.69,72492.5,-12.73,-13.87,-14.01,0,*69
1487732425.35,31776,10.69,72502.3,-12.73,-13.93,-13.93,0,*63
1487732426.59,31777,10.63,72510.0,-12.73,-13.93,-14.01,0,*6E
1487732427.85,31778,10.69,72504.0,-12.69,-13.83,-13.87,0,*62
1487732429.08,31779,10.69,72462.5,-12.73,-13.65,-13.87,0,*60
1487732430.3,31780,10.69,72456.0,-12.69,-13.69,-13.73,0,*6A
1487732431.53,31781,10.63,72470.0,-12.69,-13.61,-13.69,0,*68
1487732432.76,31782,10.69,72490.3,-12.73,-13.73,-13.87,0,*63
1487732433.99,31783,10.69,72484.5,-12.73,-13.73,-13.79,0,*63
1487732435.23,31784,10.69,72488.8,-12.69,-13.73,-13.87,0,*6E
1487732436.46,31785,10.69,72500.0,-12.73,-13.79,-13.93,0,*6B
1487732437.69,31786,10.69,72458.3,-12.73,-13.73,-13.79,0,*66
1487732438.92,31787,10.69,72474.8,-12.69,-13.73,-13.87,0,*6D
1487732440.16,31788,10.69,72482.8,-12.69,-13.73,-13.87,0,*62
1487732441.42,31789,10.69,72482.5,-12.69,-13.87,-13.83,0,*6C
1487732442.68,31790,10.69,72484.8,-12.73,-13.79,-13.87,0,*6A
1487732443.94,31791,10.69,72516.3,-12.73,-13.87,-14.01,0,*63
1487732445.21,31792,10.69,72504.0,-12.69,-13.83,-13.87,0,*66
1487732446.47,31793,10.69,72462.3,-12.73,-13.79,-13.87,0,*69
1487732447.7,31794,10.69,72456.8,-12.69,-13.69,-13.87,0,*64
1487732448.93,31795,10.69,72432.3,-12.73,-13.79,-13.93,0,*6A
1487732450.2,31796,10.69,72480.5,-12.73,-13.87,-14.01,0,*64
1487732451.44,31797,10.69,72500.5,-12.69,-13.93,-14.01,0,*6B
1487732452.68,31798,10.69,72494.5,-12.73,-13.93,-14.01,0,*6F
1487732453.94,31799,10.69,72514.5,-12.73,-13.79,-14.01,0,*6A
1487732455.2,31800,10.69,72508.8,-12.73,-13.79,-14.01,0,*65
1487732456.47,31801,10.63,72500.3,-12.73,-13.87,-14.01,0,*65
1487732457.74,31802,10.69,72512.5,-12.73,-14.01,-14.01,0,*6F
1487732458.98,31803,10.69,72504.0,-12.73,-13.93,-14.01,0,*62
1487732460.21,31804,10.63,72496.5,-12.73,-13.93,-14.05,0,*61
1487732461.45,31805,10.69,72508.5,-12.73,-13.93,-14.05,0,*60
1487732462.68,31806,10.63,72506.3,-12.73,-13.93,-14.05,0,*63
1487732463.95,31807,10.69,72468.0,-12.75,-13.93,-14.01,0,*60
1487732465.18,31808,10.63,72454.8,-12.73,-13.93,-14.01,0,*69
1487732466.45,31809,10.69,72500.5,-12.73,-14.01,-14.01,0,*64
1487732467.71,31810,10.69,72504.0,-12.75,-13.73,-13.79,0,*60
1487732468.96,31811,10.63,72500.5,-12.75,-13.65,-13.79,0,*66
1487732470.18,31812,10.69,72494.8,-12.73,-13.55,-13.55,0,*6E
1487732471.38,31813,10.63,72474.0,-12.73,-13.47,-13.55,0,*6C
1487732472.65,31814,10.63,72460.0,-12.73,-13.61,-13.61,0,*68
1487732473.88,31815,10.69,72470.5,-12.69,-13.61,-13.69,0,*6A
1487732475.12,31816,10.69,72456.0,-12.69,-13.61,-13.69,0,*69
1487732476.35,31817,10.69,72454.3,-12.73,-13.61,-13.65,0,*6F
1487732477.6,31818,10.69,72454.8,-12.69,-13.51,-13.61,0,*6C
1487732478.81,31819,10.69,72434.5,-12.73,-13.55,-13.65,0,*66
1487732480.03,31820,10.63,72472.8,-12.69,-13.55,-13.55,0,*64
1487732481.27,31821,10.69,72488.3,-12.69,-13.55,-13.61,0,*62
1487732482.49,31822,10.69,72502.3,-12.73,-13.65,-13.79,0,*60
1487732483.73,31823,10.69,72484.0,-12.69,-13.69,-13.83,0,*63
1487732484.96,31824,10.69,72508.0,-12.73,-13.65,-13.87,0,*67
1487732486.2,31825,10.63,72520.5,-12.69,-13.61,-13.73,0,*62
1487732487.43,31826,10.69,72534.8,-12.73,-13.73,-13.87,0,*62
1487732488.66,31827,10.69,72542.8,-12.73,-13.73,-13.87,0,*63
1487732489.9,31828,10.69,72540.0,-12.73,-13.65,-13.87,0,*6B
1487732491.12,31829,10.63,72512.0,-12.73,-13.65,-13.79,0,*6B
1487732492.34,31830,10.69,72500.0,-12.69,-13.69,-13.73,0,*6E
1487732493.57,31831,10.69,72500.5,-12.73,-13.73,-13.87,0,*64
1487732494.8,31832,10.63,72480.8,-12.73,-13.73,-13.87,0,*67
1487732496.03,31833,10.69,72484.3,-12.73,-13.73,-13.87,0,*66
1487732497.27,31834,10.69,72478.0,-12.69,-13.73,-13.83,0,*6E
1487732498.51,31835,10.69,72488.8,-12.69,-13.73,-13.83,0,*6F
1487732499.77,31836,10.69,72498.3,-12.69,-13.83,-13.83,0,*63
1487732501.01,31837,10.69,72502.5,-12.69,-13.73,-13.83,0,*6D
1487732502.25,31838,10.69,72488.8,-12.69,-13.69,-13.87,0,*6D
1487732503.45,31839,10.69,72496.3,-12.73,-13.73,-13.93,0,*69
1487732504.69,31840,10.69,72496.5,-12.69,-13.69,-13.83,0,*66
1487732505.95,31841,10.63,72502.0,-12.73,-13.79,-13.87,0,*69
1487732507.19,31842,10.69,72494.8,-12.73,-13.73,-13.97,0,*61
1487732508.45,31843,10.69,72484.5,-12.73,-13.79,-14.01,0,*62
1487732509.73,31844,10.69,72490.0,-12.69,-13.83,-13.97,0,*63
1487732510.99,31845,10.69,72486.8,-12.73,-13.87,-14.01,0,*65
1487732512.25,31846,10.69,72476.0,-12.73,-13.87,-14.05,0,*62
1487732513.52,31847,10.69,72478.0,-12.69,-13.83,-13.87,0,*61
1487732514.8,31848,10.69,72474.8,-12.69,-13.83,-13.97,0,*6F
1487732516.06,31849,10.69,72478.5,-12.73,-13.79,-14.01,0,*68
1487732517.32,31850,10.69,72490.8,-12.73,-13.87,-14.01,0,*61
1487732518.56,31851,10.63,72498.3,-12.73,-13.79,-13.93,0,*6D
1487732519.79,31852,10.69,72492.8,-12.73,-13.87,-13.93,0,*6F
1487732521.02,31853,10.69,72496.5,-12.69,-13.73,-13.87,0,*6B
1487732522.25,31854,10.69,72484.3,-12.73,-13.79,-13.93,0,*68
1487732523.52,31855,10.69,72440.0,-12.73,-13.87,-14.01,0,*64
1487732524.75,31856,10.69,72448.8,-12.73,-13.79,-13.93,0,*6A
1487732526.0,31857,10.63,72448.5,-12.75,-13.79,-13.93,0,*6D
1487732527.23,31858,10.63,72462.3,-12.73,-13.73,-13.79,0,*6A
1487732528.47,31859,10.69,72480.3,-12.73,-13.73,-13.87,0,*6A
1487732529.7,31860,10.69,72524.3,-12.73,-13.73,-13.87,0,*60
1487732530.92,31861,10.63,72502.8,-12.73,-13.65,-13.79,0,*67
1487732532.15,31862,10.69,72518.3,-12.73,-13.65,-13.79,0,*64
1487732533.38,31863,10.69,72526.3,-12.73,-13.65,-13.79,0,*65
1487732534.58,31864,10.63,72520.8,-12.73,-13.65,-13.69,0,*63
1487732535.82,31865,10.63,72520.5,-12.73,-13.61,-13.73,0,*6D
1487732537.05,31866,10.63,72526.5,-12.73,-13.65,-13.79,0,*60
1487732538.27,31867,10.69,72524.5,-12.73,-13.73,-13.79,0,*66
1487732539.49,31868,10.69,72530.8,-12.69,-13.73,-13.73,0,*68
1487732540.72,31869,10.63,72528.0,-12.69,-13.73,-13.87,0,*62
1487732541.96,31870,10.63,72530.8,-12.69,-13.73,-13.87,0,*6A
1487732543.16,31871,10.69,72524.3,-12.73,-13.65,-13.93,0,*62
1487732544.37,31872,10.63,72520.8,-12.73,-13.73,-13.93,0,*66
1487732545.6,31873,10.63,72520.5,-12.73,-13.65,-13.87,0,*65
1487732546.81,31874,10.69,72558.3,-12.73,-13.73,-13.93,0,*60
1487732548.03,31875,10.63,72548.3,-12.73,-13.65,-13.79,0,*62
1487732549.26,31876,10.63,72526.8,-12.73,-13.65,-13.87,0,*60
1487732550.49,31877,10.69,72520.3,-12.73,-13.73,-13.79,0,*67
1487732551.76,31878,10.63,72502.5,-12.69,-13.83,-13.87,0,*6D
1487732552.96,31879,10.69,72518.5,-12.73,-13.73,-13.93,0,*6D
1487732554.19,31880,10.69,72526.5,-12.73,-13.79,-13.93,0,*61
1487732555.46,31881,10.69,72524.8,-12.73,-13.87,-14.01,0,*6D
1487732556.69,31882,10.69,72526.0,-12.73,-13.73,-13.87,0,*6C
1487732557.93,31883,10.63,72540.3,-12.73,-13.73,-13.87,0,*6D
1487732559.16,31884,10.69,72510.0,-12.73,-13.73,-13.87,0,*6A
1487732560.4,31885,10.63,72488.5,-12.69,-13.69,-13.83,0,*6F
1487732561.62,31886,10.69,72508.8,-12.73,-13.65,-13.79,0,*6E
1487732562.85,31887,10.69,72534.0,-12.73,-13.65,-13.87,0,*6E
1487732564.09,31888,10.63,72478.5,-12.73,-13.73,-14.01,0,*6F
1487732565.32,31889,10.69,72478.3,-12.73,-13.87,-13.93,0,*69
1487732566.56,31890,10.63,72454.8,-12.73,-13.73,-13.83,0,*6B
1487732567.8,31891,10.63,72504.3,-12.69,-13.73,-14.01,0,*6C
1487732569.03,31892,10.69,72550.8,-12.73,-13.79,-13.93,0,*62
1487732570.26,31893,10.63,72532.8,-12.73,-13.73,-13.87,0,*6C
1487732571.53,31894,10.69,72508.8,-12.73,-13.79,-14.01,0,*68
1487732572.76,31895,10.63,72520.8,-12.73,-13.79,-13.93,0,*65
1487732573.96,31896,10.69,72530.5,-12.73,-13.73,-13.93,0,*6C
1487732575.2,31897,10.63,72520.5,-12.73,-13.73,-13.87,0,*68
1487732576.43,31898,10.69,72522.8,-12.73,-13.73,-13.87,0,*67
1487732577.66,31899,10.63,72510.8,-12.73,-13.73,-13.79,0,*67
1487732578.89,31900,10.63,72498.8,-12.73,-13.65,-13.87,0,*60
1487732580.12,31901,10.69,72510.8,-12.73,-13.79,-13.93,0,*69
1487732581.38,31902,10.63,72548.0,-12.73,-13.87,-13.87,0,*6E
1487732582.58,31903,10.63,72534.3,-12.73,-13.65,-13.73,0,*68
1487732583.82,31904,10.69,72528.3,-12.73,-13.61,-13.65,0,*6C
1487732585.07,31905,10.69,72530.5,-12.69,-13.51,-13.61,0,*61
1487732586.3,31906,10.69,72530.5,-12.73,-13.61,-13.73,0,*69
1487732587.54,31907,10.63,72534.5,-12.73,-13.61,-13.73,0,*68
1487732588.75,31908,10.63,72536.0,-12.69,-13.55,-13.69,0,*60
1487732589.95,31909,10.69,72558.0,-12.69,-13.55,-13.69,0,*61
1487732591.16,31910,10.69,72518.3,-12.69,-13.55,-13.69,0,*69
1487732592.41,31911,10.63,72486.8,-12.69,-13.55,-13.61,0,*60
1487732593.64,31912,10.69,72504.8,-12.73,-13.61,-13.65,0,*6B
1487732594.85,31913,10.69,72506.8,-12.69,-13.55,-13.73,0,*61
1487732596.09,31914,10.69,72510.5,-12.69,-13.69,-13.83,0,*66
1487732597.32,31915,10.63,72514.3,-12.73,-13.65,-13.79,0,*65
1487732598.55,31916,10.69,72530.3,-12.69,-13.61,-13.69,0,*68
1487732599.81,31917,10.69,72552.3,-12.69,-13.61,-13.83,0,*6D
1487732601.02,31918,10.69,72564.8,-12.73,-13.65,-13.73,0,*62
1487732602.23,31919,10.69,72560.3,-12.73,-13.65,-13.73,0,*63
1487732603.46,31920,10.69,72508.8,-12.73,-13.47,-13.61,0,*6A
1487732604.7,31921,10.69,72474.0,-12.69,-13.37,-13.43,0,*67
1487732605.94,31922,10.69,72464.0,-12.67,-13.29,-13.43,0,*65
1487732607.19,31923,10.63,72474.0,-12.67,-13.37,-13.51,0,*68
1487732608.4,31924,10.69,72486.8,-12.67,-13.43,-13.55,0,*68
1487732609.62,31925,10.69,72492.0,-12.67,-13.55,-13.69,0,*61
1487732610.84,31926,10.63,72492.3,-12.67,-13.51,-13.69,0,*66
1487732612.08,31927,10.69,72492.8,-12.67,-13.55,-13.61,0,*6B
1487732613.3,31928,10.69,72508.5,-12.67,-13.55,-13.69,0,*6C
1487732614.51,31929,10.69,72514.0,-12.67,-13.55,-13.73,0,*66
1487732615.75,31930,10.63,72514.8,-12.73,-13.55,-13.83,0,*64
1487732617.01,31931,10.69,72506.5,-12.67,-13.61,-13.83,0,*67
1487732618.23,31932,10.69,72504.3,-12.67,-13.69,-13.73,0,*63
1487732619.47,31933,10.69,72516.3,-12.67,-13.69,-13.83,0,*6D
1487732620.71,31934,10.63,72508.8,-12.67,-13.61,-13.73,0,*6D
1487732621.95,31935,10.69,72514.5,-12.67,-13.69,-13.83,0,*6B
1487732623.22,31936,10.63,72500.0,-12.69,-13.61,-13.83,0,*6E
1487732624.45,31937,10.63,72502.8,-12.69,-13.69,-13.83,0,*67
1487732625.69,31938,10.69,72508.3,-12.69,-13.61,-13.73,0,*6F
1487732626.93,31939,10.69,72520.3,-12.67,-13.65,-13.79,0,*6E
1487732628.19,31940,10.69,72520.0,-12.67,-13.61,-13.83,0,*61
1487732629.43,31941,10.69,72526.3,-12.67,-13.69,-13.83,0,*68
1487732630.7,31942,10.63,72528.8,-12.67,-13.61,-13.83,0,*63
1487732631.97,31943,10.63,72526.3,-12.67,-13.61,-13.83,0,*62
1487732633.21,31944,10.63,72532.5,-12.67,-13.61,-13.73,0,*6A
1487732634.45,31945,10.69,72538.3,-12.67,-13.61,-13.73,0,*6B
1487732635.69,31946,10.69,72526.5,-12.67,-13.69,-13.83,0,*6F
1487732636.93,31947,10.63,72524.3,-12.69,-13.69,-13.83,0,*60
1487732638.2,31948,10.63,72522.3,-12.69,-13.83,-13.97,0,*6E
1487732639.48,31949,10.63,72524.0,-12.69,-13.83,-13.97,0,*6F
1487732640.75,31950,10.69,72518.0,-12.73,-13.83,-14.01,0,*64
1487732642.02,31951,10.63,72530.5,-12.69,-13.83,-13.97,0,*66
1487732643.27,31952,10.69,72528.8,-12.69,-13.73,-13.97,0,*6A
1487732644.53,31953,10.69,72536.5,-12.73,-13.87,-14.01,0,*63
1487732645.81,31954,10.63,72534.3,-12.69,-13.83,-14.01,0,*6B
1487732647.08,31955,10.63,72548.3,-12.69,-13.87,-14.01,0,*6E
1487732648.34,31956,10.69,72554.3,-12.69,-13.87,-14.01,0,*6D
1487732649.61,31957,10.69,72552.0,-12.69,-13.87,-14.01,0,*6C
1487732650.88,31958,10.63,72546.3,-12.69,-13.87,-13.97,0,*6B
1487732652.12,31959,10.63,72558.5,-12.69,-13.73,-14.01,0,*69
1487732653.37,31960,10.69,72560.5,-12.69,-13.73,-14.01,0,*63
1487732654.6,31961,10.69,72572.3,-12.73,-13.93,-14.05,0,*63
1487732655.85,31962,10.69,72566.5,-12.69,-13.97,-14.15,0,*6E
1487732657.09,31963,10.69,72554.3,-12.69,-13.87,-14.11,0,*6A
1487732658.33,31964,10.63,72502.8,-12.69,-13.73,-13.97,0,*6F
1487732659.57,31965,10.69,72498.8,-12.69,-13.69,-13.87,0,*64
1487732660.8,31966,10.63,72510.5,-12.73,-13.79,-13.93,0,*68
1487732662.03,31967,10.63,72510.3,-12.69,-13.73,-13.87,0,*6D
1487732663.25,31968,10.69,72504.5,-12.69,-13.69,-13.73,0,*62
1487732664.46,31969,10.69,72486.5,-12.69,-13.73,-13.93,0,*66
1487732665.7,31970,10.69,72488.3,-12.73,-13.73,-13.97,0,*61
1487732666.93,31971,10.69,72522.0,-12.69,-13.61,-13.73,0,*62
1487732668.17,31972,10.63,72522.3,-12.69,-13.69,-13.83,0,*66
1487732669.41,31973,10.69,72514.8,-12.69,-13.61,-13.73,0,*60
1487732670.67,31974,10.69,72538.3,-12.73,-13.79,-13.87,0,*6E
1487732671.93,31975,10.69,72540.0,-12.73,-13.79,-14.01,0,*66
1487732673.19,31976,10.63,72536.8,-12.69,-13.79,-13.87,0,*67
1487732674.43,31977,10.63,72534.5,-12.69,-13.61,-13.73,0,*64
1487732675.66,31978,10.69,72536.0,-12.69,-13.69,-13.83,0,*6C
1487732676.9,31979,10.63,72540.3,-12.69,-13.73,-13.87,0,*62
1487732678.14,31980,10.63,72536.0,-12.69,-13.73,-13.87,0,*64
1487732679.38,31981,10.69,72538.3,-12.69,-13.69,-13.97,0,*6F
1487732680.65,31982,10.69,72528.0,-12.73,-13.83,-14.01,0,*6B
1487732681.89,31983,10.69,72530.8,-12.69,-13.61,-13.73,0,*6F
1487732683.15,31984,10.69,72532.8,-12.69,-13.61,-13.83,0,*67
1487732684.37,31985,10.63,72524.3,-12.69,-13.69,-13.73,0,*61
1487732685.6,31986,10.63,72520.5,-12.69,-13.69,-13.87,0,*69
1487732686.87,31987,10.63,72516.3,-12.69,-13.83,-13.87,0,*6C
1487732688.13,31988,10.69,72514.0,-12.73,-13.87,-14.01,0,*65
1487732689.41,31989,10.69,72506.8,-12.69,-13.83,-13.97,0,*63
1487732690.68,31990,10.63,72506.5,-12.69,-13.83,-13.97,0,*6B
1487732691.96,31991,10.63,72510.8,-12.69,-13.83,-14.01,0,*62
1487732693.2,31992,10.63,72510.5,-12.69,-13.83,-14.11,0,*60
1487732694.47,31993,10.63,72508.5,-12.69,-13.97,-14.01,0,*65
1487732695.71,31994,10.63,72518.0,-12.73,-13.93,-14.05,0,*69
1487732696.98,31995,10.63,72522.3,-12.73,-14.01,-14.05,0,*64
1487732698.24,31996,10.63,72522.3,-12.69,-13.87,-14.01,0,*61
1487732699.48,31997,10.69,72526.0,-12.69,-13.87,-14.11,0,*61
1487732700.71,31998,10.63,72534.0,-12.73,-13.93,-14.05,0,*65
1487732701.95,31999,10.63,72532.8,-12.73,-13.87,-14.15,0,*60
1487732703.19,32000,10.63,72518.0,-12.69,-13.97,-14.11,0,*64
1487732704.43,32001,10.63,72536.0,-12.73,-13.93,-14.05,0,*6F
1487732705.7,32002,10.63,72532.3,-12.73,-14.01,-14.05,0,*60
1487732706.97,32003,10.63,72516.5,-12.69,-13.87,-14.01,0,*67
1487732708.23,32004,10.63,72508.5,-12.73,-13.87,-14.01,0,*6B
1487732709.5,32005,10.63,72506.3,-12.69,-13.83,-13.97,0,*6D
1487732710.74,32006,10.63,72484.8,-12.73,-13.79,-13.93,0,*64
1487732711.97,32007,10.63,72488.0,-12.69,-13.69,-13.87,0,*6A
1487732713.24,32008,10.63,72496.8,-12.73,-13.87,-14.01,0,*67
1487732714.5,32009,10.63,72496.5,-12.73,-13.79,-14.01,0,*67
1487732715.76,32010,10.63,72506.5,-12.73,-13.79,-14.01,0,*6F
1487732716.99,32011,10.69,72520.3,-12.73,-13.79,-13.93,0,*62
1487732718.23,32012,10.63,72538.0,-12.73,-13.73,-13.87,0,*6E
1487732719.45,32013,10.63,72538.8,-12.73,-13.65,-13.79,0,*69
1487732720.69,32014,10.63,72556.3,-12.69,-13.69,-13.83,0,*6C
1487732721.95,32015,10.63,72544.3,-12.73,-13.87,-13.87,0,*62
1487732723.18,32016,10.63,72546.3,-12.69,-13.73,-13.87,0,*61
1487732724.39,32017,10.69,72552.0,-12.73,-13.73,-13.93,0,*6E
1487732725.62,32018,10.69,72548.5,-12.73,-13.65,-13.79,0,*62
1487732726.85,32019,10.63,72564.3,-12.73,-13.65,-13.87,0,*62
1487732728.08,32020,10.69,72558.0,-12.73,-13.73,-13.87,0,*6F
1487732729.32,32021,10.69,72550.8,-12.73,-13.73,-14.01,0,*67
1487732730.53,32022,10.63,72550.3,-12.73,-13.73,-13.93,0,*68
1487732731.73,32023,10.69,72554.5,-12.73,-13.73,-13.93,0,*69
1487732732.97,32024,10.69,72546.5,-12.69,-13.73,-13.87,0,*60
1487732734.2,32025,10.63,72538.0,-12.73,-13.73,-13.83,0,*6E
1487732735.44,32026,10.63,72532.0,-12.73,-13.69,-13.87,0,*62
1487732736.67,32027,10.63,72534.0,-12.69,-13.69,-13.87,0,*68
1487732737.93,32028,10.69,72532.3,-12.69,-13.61,-13.83,0,*6B
1487732739.16,32029,10.63,72530.8,-12.73,-13.65,-13.79,0,*60
1487732740.39,32030,10.63,72538.5,-12.73,-13.65,-13.87,0,*69
1487732741.62,32031,10.63,72534.3,-12.73,-13.65,-13.79,0,*69
1487732742.85,32032,10.63,72534.3,-12.73,-13.73,-13.87,0,*6C
1487732744.1,32033,10.69,72538.8,-12.69,-13.73,-13.97,0,*67
1487732745.34,32034,10.63,72538.5,-12.73,-13.73,-13.97,0,*6B
1487732746.58,32035,10.69,72544.8,-12.69,-13.69,-14.01,0,*62
1487732747.84,32036,10.63,72540.0,-12.73,-13.79,-14.01,0,*6B
1487732749.11,32037,10.63,72542.3,-12.73,-13.79,-14.01,0,*6A
1487732750.34,32038,10.63,72544.0,-12.73,-13.79,-13.93,0,*69
1487732751.54,32039,10.63,72546.5,-12.69,-13.65,-13.93,0,*6E
1487732752.78,32040,10.63,72558.0,-12.69,-13.61,-13.73,0,*6A
1487732754.01,32041,10.63,72566.3,-12.69,-13.65,-13.79,0,*65
1487732755.28,32042,10.69,72566.5,-12.69,-13.61,-13.61,0,*6B
1487732756.49,32043,10.63,72560.0,-12.69,-13.43,-13.51,0,*69
1487732757.73,32044,10.63,72518.3,-12.73,-13.47,-13.61,0,*62
1487732758.99,32045,10.63,72518.0,-12.73,-13.61,-13.87,0,*6F
1487732760.25,32046,10.63,72526.8,-12.69,-13.61,-13.83,0,*63
1487732761.49,32047,10.63,72530.8,-12.69,-13.69,-13.83,0,*6A
1487732762.72,32048,10.63,72524.8,-12.69,-13.69,-13.87,0,*61
1487732763.93,32049,10.63,72536.0,-12.73,-13.73,-13.93,0,*65
1487732765.17,32050,10.63,72526.0,-12.69,-13.73,-13.97,0,*62
1487732766.44,32051,10.63,72514.3,-12.73,-13.87,-14.01,0,*6B
1487732767.67,32052,10.63,72504.3,-12.73,-13.79,-13.93,0,*65
1487732768.9,32053,10.63,72496.0,-12.69,-13.69,-13.87,0,*6B
1487732770.18,32054,10.63,72506.5,-12.69,-13.83,-14.01,0,*61
1487732771.42,32055,10.69,72510.3,-12.69,-13.97,-14.11,0,*64
1487732772.69,32056,10.69,72522.0,-12.69,-13.87,-14.01,0,*67
1487732773.93,32057,10.63,72530.8,-12.69,-13.73,-13.97,0,*65
1487732775.16,32058,10.63,72528.8,-12.73,-13.79,-13.93,0,*6F
1487732776.4,32059,10.63,72512.0,-12.73,-13.73,-14.01,0,*68
1487732777.66,32060,10.63,72514.3,-12.69,-13.61,-13.87,0,*63
1487732778.87,32061,10.63,72500.3,-12.73,-13.73,-13.93,0,*6F
1487732780.11,32062,10.63,72510.3,-12.69,-13.73,-13.97,0,*63
1487732781.39,32063,10.63,72490.3,-12.69,-13.83,-14.01,0,*65
1487732782.63,32064,10.63,72482.3,-12.69,-13.73,-14.01,0,*6D
1487732783.91,32065,10.63,72484.3,-12.69,-13.83,-14.01,0,*63
1487732785.18,32066,10.63,72466.8,-12.69,-13.83,-14.01,0,*60
1487732786.41,32067,10.63,72484.5,-12.73,-13.93,-14.05,0,*6F
1487732787.68,32068,10.63,72494.8,-12.73,-13.87,-14.01,0,*61
1487732788.94,32069,10.63,72498.3,-12.73,-13.87,-14.01,0,*60
1487732790.19,32070,10.63,72506.3,-12.69,-13.73,-13.97,0,*60
1487732791.42,32071,10.63,72500.5,-12.73,-13.79,-13.93,0,*64
1487732792.66,32072,10.63,72518.5,-12.69,-13.73,-13.97,0,*62
1487732793.9,32073,10.63,72520.3,-12.73,-13.73,-13.87,0,*69
1487732795.14,32074,10.63,72522.8,-12.73,-13.73,-13.97,0,*6F
1487732796.4,32075,10.63,72530.3,-12.73,-13.87,-14.01,0,*6D
1487732797.67,32076,10.63,72508.8,-12.73,-13.79,-14.01,0,*6F
1487732798.94,32077,10.63,72528.8,-12.69,-13.83,-13.97,0,*68
1487732800.18,32078,10.63,72542.3,-12.69,-13.73,-13.87,0,*69
1487732801.41,32079,10.63,72514.0,-12.69,-13.73,-13.87,0,*68
1487732802.67,32080,10.63,72508.0,-12.73,-13.79,-13.87,0,*6F
1487732803.88,32081,10.63,72518.5,-12.69,-13.69,-13.73,0,*6F
1487732805.11,32082,10.63,72506.0,-12.73,-13.73,-13.87,0,*67
1487732806.36,32083,10.63,72524.3,-12.69,-13.73,-13.97,0,*6C
1487732807.62,32084,10.69,72530.5,-12.73,-13.79,-14.01,0,*62
1487732808.88,32085,10.63,72518.8,-12.69,-13.61,-13.87,0,*68
1487732810.13,32086,10.69,72516.0,-12.73,-13.73,-14.01,0,*6A
1487732811.36,32087,10.63,72518.3,-12.69,-13.73,-13.87,0,*69
1487732812.61,32088,10.63,72506.3,-12.69,-13.73,-13.97,0,*67
1487732813.84,32089,10.69,72506.0,-12.69,-13.69,-13.87,0,*6C
1487732815.07,32090,10.63,72524.8,-12.73,-13.79,-13.93,0,*6B
1487732816.32,32091,10.63,72486.5,-12.69,-13.73,-13.97,0,*6F
1487732817.58,32092,10.63,72476.3,-12.69,-13.61,-13.83,0,*6A
1487732818.8,32093,10.69,72484.8,-12.73,-13.65,-13.79,0,*61
1487732820.07,32094,10.63,72504.8,-12.69,-13.61,-13.83,0,*6C
1487732821.33,32095,10.63,72506.5,-12.69,-13.61,-13.87,0,*69
1487732822.57,32096,10.63,72516.3,-12.69,-13.69,-13.87,0,*62
1487732823.8,32097,10.63,72522.5,-12.69,-13.73,-13.87,0,*68
1487732825.05,32098,10.63,72520.5,-12.69,-13.73,-13.97,0,*66
1487732826.28,32099,10.63,72528.3,-12.69,-13.73,-13.87,0,*66
1487732827.52,32100,10.63,72534.3,-12.69,-13.69,-13.87,0,*6C
1487732828.75,32101,10.63,72528.8,-12.69,-13.73,-13.87,0,*66
1487732830.0,32102,10.63,72524.3,-12.69,-13.73,-13.97,0,*64
1487732831.27,32103,10.63,72526.3,-12.69,-13.83,-13.97,0,*6A
1487732832.52,32104,10.63,72518.3,-12.69,-13.73,-13.97,0,*62
1487732833.78,32105,10.63,72520.3,-12.73,-13.87,-14.01,0,*6B
1487732835.06,32106,10.63,72528.5,-12.69,-13.83,-14.01,0,*67
1487732836.3,32107,10.63,72522.5,-12.69,-13.83,-14.11,0,*67
1487732837.54,32108,10.63,72524.3,-12.69,-13.73,-13.97,0,*6E
1487732838.8,32109,10.63,72530.8,-12.73,-13.79,-14.05,0,*62
1487732840.07,32110,10.63,72518.0,-12.69,-13.83,-13.87,0,*69
1487732841.31,32111,10.63,72522.8,-12.69,-13.73,-13.97,0,*66
1487732842.59,32112,10.63,72518.8,-12.69,-13.83,-13.97,0,*6A
1487732843.83,32113,10.63,72528.8,-12.69,-13.73,-13.97,0,*64
1487732845.11,32114,10.63,72534.5,-12.69,-13.83,-14.01,0,*64
1487732846.34,32115,10.63,72534.8,-12.73,-13.93,-14.05,0,*6B
1487732847.61,32116,10.63,72536.3,-12.69,-13.87,-14.01,0,*62
1487732848.85,32117,10.63,72544.3,-12.73,-13.93,-14.01,0,*6D
1487732850.12,32118,10.63,72552.8,-12.69,-14.01,-14.05,0,*61
1487732851.35,32119,10.63,72544.8,-12.69,-13.87,-14.11,0,*6C
1487732852.59,32120,10.69,72540.0,-12.69,-13.87,-14.11,0,*66
1487732853.83,32121,10.63,72546.5,-12.73,-14.01,-14.15,0,*61
1487732855.11,32122,10.63,72536.3,-12.69,-13.83,-14.01,0,*61
1487732856.35,32123,10.63,72536.3,-12.69,-13.83,-14.11,0,*61
1487732857.62,32124,10.63,72542.5,-12.69,-13.97,-14.01,0,*62
1487732858.84,32125,10.63,72546.8,-12.73,-13.93,-14.15,0,*69
1487732860.08,32126,10.63,72550.3,-12.73,-14.01,-14.15,0,*66
1487732861.32,32127,10.63,72550.8,-12.73,-13.93,-14.05,0,*6A
1487732862.53,32128,10.63,72534.8,-12.73,-13.93,-14.15,0,*64
1487732863.76,32129,10.63,72530.0,-12.69,-13.87,-14.11,0,*6F
1487732864.97,32130,10.63,72532.3,-12.73,-13.93,-14.19,0,*61
1487732866.2,32131,10.63,72544.3,-12.69,-13.87,-14.11,0,*66
1487732867.48,32132,10.63,72542.0,-12.69,-13.97,-14.01,0,*65
1487732868.75,32133,10.63,72542.8,-12.69,-13.87,-14.01,0,*65
1487732869.99,32134,10.63,72546.8,-12.73,-13.87,-14.15,0,*6C
1487732871.25,32135,10.63,72540.5,-12.73,-13.79,-14.05,0,*6D
1487732872.51,32136,10.63,72550.5,-12.73,-13.83,-14.05,0,*6B
1487732873.78,32137,10.63,72548.8,-12.73,-13.87,-14.05,0,*6E
1487732875.01,32138,10.69,72554.8,-12.73,-13.93,-14.05,0,*64
1487732876.26,32139,10.63,72548.3,-12.69,-13.73,-14.01,0,*64
1487732877.49,32140,10.63,72548.5,-12.73,-13.87,-14.11,0,*6B
1487732878.76,32141,10.63,72552.8,-12.69,-13.87,-14.01,0,*60
1487732880.02,32142,10.63,72558.3,-12.69,-13.87,-14.01,0,*63
1487732881.27,32143,10.63,72558.0,-12.73,-14.05,-14.19,0,*6D
1487732882.51,32144,10.63,72564.5,-12.73,-14.01,-14.19,0,*6E
1487732883.74,32145,10.63,72560.0,-12.73,-13.93,-14.05,0,*6E
1487732884.99,32146,10.63,72562.5,-12.73,-14.01,-14.15,0,*60
1487732886.26,32147,10.63,72558.3,-12.69,-13.87,-13.97,0,*6E
1487732887.47,32148,10.63,72564.0,-12.73,-13.93,-14.15,0,*62
1487732888.74,32149,10.63,72556.5,-12.69,-13.83,-14.01,0,*6C